Wind_Speed
29 31 32 33 34 34 34 34 34 34 35 35 36 37 38 38 39 40 40 41 41 41 42 43 43 44 45 45 45 45 44 44 43 44 44 44 44 44
30 30 30 31 32 32 33 33 33 33 33 34 35 36 37 38 38 38 39 40 40 40 41 42 42 42 42 42 42 41 40 40 40 41 40 40 41 42
30 30 30 30 30 31 32 32 32 33 34 34 35 36 36 36 36 37 38 39 39 40 40 40 39 39 39 39 38 37 37 37 37 37 38 38 39 39
29 30 30 30 30 31 31 32 32 33 33 34 34 35 36 36 37 38 37 37 38 38 38 37 37 36 36 35 35 35 35 35 35 35 35 36 36 36
27 28 28 28 29 30 31 32 32 32 33 33 34 34 35 36 36 36 36 35 35 35 35 34 34 33 33 32 32 32 32 32 32 32 32 33 32 32
26 26 27 27 28 29 30 31 31 31 32 32 33 34 34 34 35 34 34 33 33 32 32 32 31 31 31 30 30 30 30 29 29 29 29 28 28 28
24 24 25 26 27 28 29 29 29 30 31 32 33 33 33 32 32 32 31 31 30 30 30 29 29 29 28 28 27 27 26 26 26 26 26 25 25 25
23 24 25 25 26 27 27 28 29 30 30 31 31 31 31 31 30 29 29 28 28 28 28 27 26 26 25 24 24 23 23 23 23 23 23 23 24 24
22 23 24 24 25 25 26 27 28 28 29 29 28 28 28 27 27 26 26 26 26 26 25 24 23 22 21 21 20 20 21 21 21 21 21 21 21 22
21 21 22 23 24 24 25 25 26 26 26 26 26 25 25 24 24 24 24 24 24 23 22 20 19 18 17 17 18 18 19 19 19 19 19 19 20 20
20 20 21 22 22 23 23 24 24 24 24 23 22 22 22 22 22 22 22 21 21 19 18 17 16 16 15 16 16 16 17 17 17 17 17 18 19 19
18 19 20 20 21 21 21 22 22 21 21 20 20 20 20 20 20 19 19 18 17 16 15 15 14 14 14 14 14 14 15 15 15 16 16 17 18 19
16 16 17 17 18 19 19 19 18 18 18 18 19 19 19 18 18 17 16 15 15 14 13 13 13 12 12 12 12 12 12 13 14 15 16 16 17 19
13 14 14 15 15 16 16 16 16 16 16 16 16 16 16 16 15 15 14 13 13 12 12 11 11 10 9 9 10 10 11 12 14 15 15 16 17 18
11 12 12 12 13 13 14 14 14 14 14 14 14 13 13 13 13 12 11 11 11 10 10 9 8 7 7 7 8 9 10 12 13 14 15 16 17 18
9 9 10 11 11 12 12 12 12 12 12 12 12 12 12 11 11 10 10 9 9 8 7 6 6 6 5 6 7 8 10 11 13 14 15 16 17 19
6 7 8 9 9 10 10 10 11 11 11 10 10 10 9 9 9 8 8 7 6 5 4 4 4 4 4 6 7 8 10 11 12 14 15 16 18 19
5 6 7 8 8 9 9 9 9 9 9 8 8 7 7 7 6 6 5 5 4 3 3 3 3 3 4 6 7 9 10 11 13 14 16 17 18 19
5 6 6 7 8 8 8 8 8 7 7 6 5 5 5 4 4 4 3 2 1 1 1 2 3 4 5 6 8 9 10 12 13 15 16 17 18 20
6 6 7 7 8 8 7 7 6 5 4 4 3 2 2 2 2 2 1 1 1 1 1 2 3 4 5 6 8 9 10 12 14 15 16 17 19 20
7 7 8 8 8 8 7 6 5 4 3 2 1 1 1 1 2 2 2 2 2 2 2 3 4 5 6 7 8 9 11 13 14 15 16 18 19 21
9 9 9 9 9 8 8 7 6 4 3 3 3 3 2 2 3 3 3 2 2 2 3 3 4 5 6 7 9 10 12 13 15 15 17 18 19 21
10 10 10 10 10 10 9 8 7 6 5 5 4 4 3 3 3 3 3 3 2 3 3 4 5 6 7 8 10 11 13 14 15 16 17 18 20 21
Wind_Direction
258 259 261 261 262 262 263 264 266 267 268 273 275 278 281 283 285 287 287 289 289 290 291 291 292 292 293 292 292 291 290 289 289 288 287 287 286 285
260 261 263 264 263 264 266 268 269 271 274 277 278 281 283 284 286 288 288 289 290 291 292 292 293 294 293 293 292 292 291 291 291 290 290 289 289 288
261 263 264 265 265 267 268 270 271 274 276 279 281 282 283 285 286 287 289 290 290 292 292 293 293 294 294 294 293 294 293 293 294 293 293 293 292 292
262 264 264 265 265 267 270 271 273 276 278 279 281 282 284 285 286 287 289 290 291 292 292 293 294 294 294 294 295 296 296 296 296 297 297 297 297 296
261 262 263 265 266 268 270 272 275 277 278 280 281 282 283 284 286 287 289 289 290 291 292 292 293 294 295 296 297 297 298 299 301 302 302 301 301 300
262 263 263 266 269 271 272 274 275 277 279 280 281 282 284 286 287 288 288 289 289 290 291 292 293 294 295 297 298 299 301 303 304 305 307 308 308 308
263 265 268 270 272 273 275 276 277 278 280 281 282 283 285 286 286 287 287 288 288 289 291 292 293 294 295 297 299 302 304 307 309 310 312 314 314 314
265 268 269 271 273 274 275 276 277 279 281 282 283 284 285 285 286 286 286 288 288 289 290 292 294 295 296 299 302 305 308 311 313 315 317 319 319 319
268 269 270 272 273 275 275 277 279 280 281 282 283 284 284 284 285 286 287 288 289 290 292 294 295 296 299 301 303 307 311 315 317 320 322 323 324 325
268 268 271 272 274 275 277 278 279 280 281 281 281 281 283 284 285 286 287 288 289 291 292 293 294 296 299 302 306 311 315 318 321 324 327 328 330 332
268 270 271 273 274 275 276 277 278 280 280 280 281 281 282 283 285 286 288 289 290 290 289 290 293 296 299 304 309 314 318 323 327 330 332 333 335 337
270 272 274 275 276 278 279 279 279 280 281 282 283 283 283 284 285 287 288 289 289 289 288 289 292 297 303 309 314 318 322 327 332 335 337 338 340 341
273 275 277 278 279 280 281 282 282 283 283 284 284 284 284 284 286 287 288 288 289 289 289 290 293 297 303 310 317 323 328 333 337 340 343 343 344 344
278 279 279 280 281 283 284 285 286 287 288 288 287 287 286 286 287 288 288 288 287 287 290 291 295 301 309 316 323 330 336 340 342 344 346 347 349 350
283 282 282 284 285 287 288 287 287 288 289 289 289 289 290 289 288 287 286 286 285 288 292 293 298 307 315 323 332 340 344 346 347 349 350 352 353 353
287 287 289 291 292 292 293 293 292 292 292 292 292 292 292 289 287 285 285 284 284 286 290 296 305 313 322 337 345 349 351 351 352 353 354 355 355 355
299 300 301 303 305 305 303 302 300 298 295 294 293 294 293 292 289 286 286 285 284 285 287 298 312 324 339 349 352 354 355 356 356 356 357 357 358 358
320 320 320 319 317 315 313 311 309 305 301 298 296 295 296 296 293 290 291 290 286 283 289 310 328 343 350 354 356 357 357 357 358 359 359 359 359 359
351 346 342 337 331 326 322 319 315 310 306 303 300 298 300 301 301 303 304 304 298 300 336 350 354 354 355 359 359 358 358 359 359 359 359 359 359 359
13 4 357 351 347 342 337 333 329 324 318 313 311 310 314 320 330 346 5 46 80 67 29 13 4 1 360 0 360 359 360 359 358 357 358 358 358 358
22 14 8 4 1 358 355 354 353 352 349 348 0 15 27 43 54 64 74 82 72 48 27 17 12 7 4 2 0 359 357 356 355 355 355 356 356 356
27 22 18 14 14 14 15 17 21 27 38 53 65 65 66 72 76 79 79 75 63 43 27 18 12 6 2 359 356 353 352 351 351 351 353 354 354 354
31 29 28 28 28 29 32 37 41 49 58 65 67 66 66 69 74 74 69 62 48 34 22 10 2 357 353 350 348 347 347 346 347 348 350 351 352 352
Height
5780 5781 5782 5782 5783 5783 5784 5784 5784 5783 5782 5781 5781 5779 5777 5776 5774 5772 5769 5767 5764 5761 5758 5755 5751 5747 5744 5740 5736 5732 5728 5724 5720 5716 5712 5709 5705 5702
5772 5772 5773 5774 5774 5775 5775 5775 5775 5775 5774 5773 5771 5770 5768 5766 5764 5761 5759 5756 5753 5750 5747 5744 5740 5737 5733 5729 5725 5721 5717 5713 5709 5705 5701 5697 5694 5690
5764 5764 5765 5766 5766 5766 5766 5766 5766 5766 5765 5763 5762 5760 5758 5756 5754 5752 5749 5746 5743 5740 5737 5734 5730 5726 5723 5719 5715 5711 5707 5703 5699 5695 5691 5687 5683 5679
5756 5756 5757 5757 5757 5758 5758 5758 5757 5756 5756 5754 5752 5751 5749 5747 5744 5742 5739 5736 5734 5730 5727 5724 5720 5717 5713 5710 5706 5702 5699 5695 5691 5686 5682 5678 5674 5669
5748 5748 5749 5749 5749 5750 5749 5749 5748 5747 5746 5745 5743 5741 5739 5737 5735 5732 5730 5727 5724 5721 5718 5715 5711 5708 5705 5702 5698 5694 5691 5687 5683 5678 5674 5670 5665 5661
5740 5741 5741 5741 5741 5741 5741 5740 5739 5738 5737 5736 5734 5732 5730 5728 5726 5723 5721 5718 5715 5712 5709 5706 5703 5700 5697 5694 5691 5687 5683 5679 5675 5671 5667 5663 5658 5653
5733 5733 5733 5733 5733 5733 5732 5731 5730 5729 5728 5727 5725 5723 5721 5719 5717 5714 5712 5710 5707 5705 5702 5699 5696 5693 5690 5687 5684 5681 5677 5673 5670 5666 5661 5657 5652 5647
5726 5726 5726 5726 5725 5724 5724 5723 5722 5721 5719 5718 5716 5714 5713 5711 5709 5707 5705 5702 5700 5698 5695 5692 5689 5687 5684 5681 5678 5675 5672 5668 5665 5660 5656 5652 5647 5642
5718 5718 5718 5718 5717 5717 5716 5715 5714 5713 5711 5710 5708 5706 5705 5703 5701 5699 5697 5695 5693 5690 5688 5686 5683 5681 5678 5676 5674 5671 5667 5664 5660 5656 5652 5647 5643 5638
5711 5711 5711 5711 5710 5709 5709 5707 5706 5705 5703 5702 5700 5699 5697 5695 5694 5692 5690 5688 5686 5684 5682 5680 5678 5676 5674 5672 5670 5667 5663 5660 5656 5652 5648 5644 5640 5635
5705 5704 5704 5703 5703 5702 5701 5700 5699 5697 5696 5695 5693 5692 5690 5689 5687 5685 5684 5682 5680 5679 5677 5676 5674 5672 5670 5668 5666 5663 5660 5656 5653 5649 5645 5641 5637 5632
5699 5698 5698 5697 5696 5695 5695 5693 5692 5691 5689 5688 5687 5685 5684 5682 5681 5679 5678 5676 5675 5674 5672 5671 5670 5669 5667 5665 5663 5660 5657 5654 5650 5647 5643 5639 5635 5630
5693 5693 5692 5691 5690 5689 5688 5687 5686 5684 5683 5682 5681 5679 5678 5677 5675 5674 5672 5671 5670 5669 5669 5668 5667 5665 5664 5662 5660 5657 5655 5651 5648 5645 5641 5637 5633 5629
5688 5688 5687 5686 5685 5684 5683 5682 5680 5679 5678 5677 5676 5674 5673 5671 5670 5669 5668 5667 5666 5666 5665 5664 5663 5662 5661 5659 5658 5655 5653 5650 5646 5643 5640 5636 5631 5627
5684 5683 5682 5682 5681 5679 5678 5677 5676 5675 5674 5672 5671 5670 5669 5667 5666 5665 5665 5664 5663 5663 5662 5661 5661 5660 5659 5657 5656 5654 5651 5648 5645 5642 5638 5634 5630 5626
5681 5680 5679 5678 5677 5676 5675 5673 5672 5671 5670 5668 5667 5666 5665 5664 5663 5663 5662 5661 5661 5661 5660 5659 5659 5658 5657 5656 5654 5652 5650 5647 5644 5641 5638 5634 5629 5625
5678 5678 5677 5675 5674 5673 5671 5670 5669 5667 5666 5665 5664 5663 5662 5662 5661 5660 5660 5659 5659 5658 5658 5658 5657 5656 5656 5655 5653 5651 5649 5646 5644 5640 5637 5633 5629 5624
5677 5676 5675 5673 5672 5671 5669 5668 5666 5665 5664 5663 5662 5661 5660 5660 5659 5659 5658 5658 5657 5657 5657 5657 5656 5656 5655 5654 5653 5651 5648 5646 5643 5640 5636 5632 5628 5624
5676 5675 5674 5672 5671 5669 5668 5666 5664 5663 5662 5661 5660 5660 5659 5659 5658 5658 5657 5657 5657 5657 5657 5657 5656 5655 5654 5653 5652 5650 5648 5645 5642 5639 5636 5632 5628 5623
5676 5675 5674 5672 5670 5668 5666 5665 5663 5662 5661 5660 5659 5659 5659 5658 5658 5657 5657 5657 5657 5657 5657 5657 5656 5655 5654 5653 5652 5650 5647 5645 5642 5638 5635 5631 5627 5623
5677 5675 5674 5672 5670 5668 5666 5664 5663 5661 5660 5660 5659 5659 5659 5658 5658 5658 5658 5658 5658 5658 5657 5657 5656 5655 5654 5653 5651 5649 5647 5644 5641 5638 5634 5630 5626 5622
5678 5676 5674 5672 5670 5668 5666 5664 5663 5662 5661 5661 5660 5660 5660 5659 5659 5659 5659 5659 5658 5658 5658 5657 5656 5655 5654 5652 5650 5648 5646 5643 5640 5637 5633 5630 5625 5621
5679 5677 5675 5673 5671 5669 5667 5666 5664 5663 5662 5662 5662 5661 5661 5661 5660 5660 5660 5659 5659 5659 5658 5658 5657 5655 5654 5652 5650 5648 5645 5642 5639 5635 5632 5628 5624 5620